Regional Weather Roundup
Issued by NWS

Home | Current Version | Previous Version | Graphics & Text | Print | Product List | Glossary On
Versions: 1 2 3 4 5 6 7 8 9 10 11 12 13 14 15 16 17 18 19 20 21 22 23 24 25 26 27 28 29 30 31 32 33 34 35 36 37 38 39 40 41 42 43 44 45 46 47 48 49 50
000
ASUS43 KBIS 152310
RWRND

NORTH DAKOTA REGIONAL WEATHER ROUNDUP
NATIONAL WEATHER SERVICE BISMARCK ND
600 PM CDT TUE APR 15 2014

NOTE: "FAIR" INDICATES FEW OR NO CLOUDS BELOW 12,000 FEET WITH NO
SIGNIFICANT WEATHER AND/OR OBSTRUCTIONS TO VISIBILITY.


NDZ001>003-009>011-017-160000-
NORTHWEST NORTH DAKOTA

CITY           SKY/WX    TMP DP  RH WIND       PRES   REMARKS
WILLISTON      CLOUDY    46  26  45 SW25      29.60F
MINOT          CLOUDY    34  19  54 E23G30    29.77S
MINOT AFB      CLOUDY    35  20  56 E22       29.77S
$$

NDZ018>021-031>035-040>046-160000-
SOUTHWEST NORTH DAKOTA

CITY           SKY/WX    TMP DP  RH WIND       PRES   REMARKS
BISMARCK       CLOUDY    45  20  36 SE22      29.71F
DICKINSON      CLOUDY    51  22  31 SE17      29.55S
GARRISON         N/A     41  20  43 SE18G26   29.71F
HETTINGER ARPT CLOUDY    56  22  26 SE14      29.54F
$$

NDZ004>008-012>016-024-026-027-054-160000-
NORTHEAST NORTH DAKOTA

CITY           SKY/WX    TMP DP  RH WIND       PRES   REMARKS
GRAND FORKS    CLOUDY    30  11  45 SE10      29.97S
GRND FRKS AFB  CLOUDY    30  11  46 E13       30.00S WCI  20
DEVILS LAKE    CLOUDY    32  10  40 SE15      29.91S
$$

NDZ022-023-025-028>030-036>039-047>053-160000-
SOUTHEAST NORTH DAKOTA

CITY           SKY/WX    TMP DP  RH WIND       PRES   REMARKS
FARGO          CLOUDY    33  11  39 SE9       29.98F
JAMESTOWN      CLOUDY    32  20  61 E21       29.87S WCI  20
$$




USA.gov is the U.S. government's official web portal to all federal, state and local government web resources and services.